IRNSS 1I

导读

IRNSS 1I(印度区域导航卫星系统1I)是印度空间研究组织(ISRO)于2018年4月11日发射的导航卫星,隶属于印度自主研发的“区域导航卫星系统”(IRNSS,现称NavIC)。该卫星旨在补充和完善印度区域导航星座,为印度及周边区域提供独立的定位、导航服务,降低对全球卫星导航系统的依赖,提升印度在航天领域自主能力,服务民用和国防导航需求。

基本信息
目录编号:
43286
目录名称:
IRNSS 1I
国际标识:
2018-035A
轨道中心:
EARTH
卫星名称:
IRNSS 1I
卫星全名:
--
卫星状态:
在轨 (已飞行2993 天)
发射日期:
2018-04-11 UTC
国别 :
印度 (IN)
星等 :
--
轨道信息
数据来源 国际轨道数据 AOE轨道数据
星历时间 2026-06-16T04:09:20+0800
5天前
查看轨道信息
2026-06-17T04:00:00+0800
4天前
查看轨道信息
半长轴 42164.672km 42164.56km
偏心率 0.0017812 0.0017682
轨道倾角 28.752° 28.754°
近地点辐角 181.560° 181.949°
升交点赤经 74.217° 74.201°
平近点角 5.515° 3.783°
近地点 35711.431km 35711.867km
远地点 35861.639km 35860.979km
周期 1436.094分钟 1436.088分钟
每日圈数 1.00272 1.002724
详细信息
使用方式:
暂无
2D轨道图
3D轨道图
轨道高度分析图
轨道倾角分析图
轨道综合分析图
查看轨道综合分析图